Regional Weather Roundup
Issued by NWS

Home | Current Version | Previous Version | Text Only | Print | Product List | Glossary Off
Versions: 1 2 3 4 5 6 7 8 9 10 11 12 13 14 15 16 17 18 19 20 21 22 23 24 25 26 27 28 29 30 31 32 33 34 35 36 37 38 39 40 41 42 43 44 45 46 47 48 49 50

000
ASUS45 KCYS 110810
RWRWY

WYOMING REGIONAL WEATHER ROUNDUP
NATIONAL WEATHER SERVICE CHEYENNE WY
200 AM MDT FRI JUL 11 2014

NOTE:  "FAIR" INDICATES FEW OR NO CLOUDS BELOW 12,000 FEET
WITH NO SIGNIFICANT WEATHER AND/OR OBSTRUCTIONS TO VISIBILITY.

WYZ001-110900-
YELLOWSTONE NATIONAL PARK

CITY           SKY/WX    TMP DP  RH WIND       PRES   REMARKS
LK YELLOWSTONE   N/A     46  42  86 CALM      30.28S
W YELLOWSTONE  NOT AVBL

$$
WYZ002>013-054>058-071-098>099-110900-
NORTHERN WYOMING

CITY           SKY/WX    TMP DP  RH WIND       PRES   REMARKS
JACKSON        CLEAR     50  46  87 N5        30.17S
CODY           PTCLDY    66  54  63 S10       30.05S
GREYBULL       PTCLDY    68  53  58 VRB6      29.95F
WORLAND        MOCLDY    70  53  54 CALM      29.99R
SHERIDAN       PTCLDY    59  53  80 W3        29.95S
BUFFALO        CLEAR     66  52  60 W8        30.03F
GILLETTE       CLEAR     67  56  67 S6        29.98S
HULETT         FAIR      68  57  68 MISG      30.00
NEWCASTLE      FAIR      64  55  72 N5        30.00

$$
WYZ014>020-022>026-101>103-110900-
CENTRAL WYOMING

CITY           SKY/WX    TMP DP  RH WIND       PRES   REMARKS
BIG PINEY      MOCLDY    57  52  83 CALM      30.22F
PINEDALE       MOSUNNY   54  52  94 E5        30.24F
DUBOIS         FAIR      54  43  66 NW12      30.20S
LANDER         CLOUDY    67  53  61 W3        30.05S
RIVERTON       MOCLDY    65  52  62 NE3       30.07R
CASPER         PTCLDY    61  53  75 W7        30.06F
DOUGLAS        PTCLDY    63  60  90 SE6       30.05S

$$
WYZ021-027>030-104>119-110900-
SOUTHERN WYOMING

CITY           SKY/WX    TMP DP  RH WIND       PRES   REMARKS
EVANSTON       CLOUDY    56  54  93 SW10      30.26F
KEMMERER       CLOUDY    59  50  72 W7        30.25F
FORT BRIDGER     N/A     58  55  87 W13       30.26F
ROCK SPRINGS   CLOUDY    61  54  77 SW8       30.20R
DIXON          CLOUDY    61  56  84 E7        30.24R
RAWLINS        MOCLDY    61  54  77 SW6       30.20F
SARATOGA       PTSUNNY   61  54  77 SE13      30.24R
LARAMIE        CLEAR     54  54 100 S7        30.24S FOG
CHEYENNE       CLOUDY    65  56  72 N5        30.15S
TORRINGTON     CLOUDY    66  65  96 CALM      30.01F

$$


USA.gov is the U.S. government's official web portal to all federal, state and local government web resources and services.